sat.trackr.live / text

‹ back to catalog

STARLINK-32835

NORAD 63051 · 2025-034Y

PAYLOAD ACTIVE UNKNOWN

§ Identity

Operator
Country
US
Launch date
2025-02-18
Launch site
AFETR
Launch vehicle
Mass (kg)
RCS (m²)

Purposes: comms

External: N2YO · Heavens-Above · Gunter

§ Orbital elements

Epoch: 2026-05-25T02:16:23.358720Z

Period
93.85 min
Inclination
53.1599°
Eccentricity
0.0001006
Mean motion
15.34400055 rev/d
Perigee alt
462.0 km
Apogee alt
463.4 km
Semi-major
6,840.8 km
B*
1.0281e-3
RAAN
275.3898°
Arg perigee
86.4366°
Mean anomaly
273.6752°
Rev number
7,061

§ Raw data

STARLINK-328351 63051U 25034Y   26145.09471480  .00034521  00000+0  10281-2 0  99982 63051  53.1599 275.3898 0001006  86.4366 273.6752 15.34400055 70614

JSON: /api/v1/satellites/63051 · /tle

For live sub-satellite position, see the globe view (requires WebGL).

§ Visibility from observer

Set your observer location to see the next 7 days of passes ≥ 10°. The values pass through the URL so the page stays shareable.

No JS? Fill the form by hand. The geolocation button needs JavaScript.